Location: Harbor Side
(32.6101°N, 117.0814°W)
Time: 06:06:55
(UTC+00:00)

KORONAS-FOTON - Pass Details

Date: 21 April 2021
Orbit: 505 x 530 km, 82.4° (Epoch: 13 May)

Event Time Altitude Azimuth Distance (km) Brightness Sun altitude
Rises 12:39:18 0° 193° (SSW) 2,618 7.1 -7.3°
Reaches altitude 10° 12:41:26 10° 197° (SSW) 1,740 6.1 -6.9°
Maximum altitude 12:45:12 60° 277° (W) 599 3.9 -6.1°
Drops below altitude 10° 12:49:02 10° 358° (N) 1,767 6.7 -5.4°
Sets 12:51:13 0° 2° (N) 2,663 7.7 -4.9°
